Wind_Speed
23 21 20 18 17 19 19 24 32 34 33 33 31 35 35 34 34 28 24 27 25 23 23 25 29 30 29 29 27 23 22 21 20 21 20 21 22 23 24 23 23 23 24 25
22 22 21 18 20 20 18 15 21 27 29 31 32 33 35 35 35 30 27 30 29 29 30 27 23 23 24 24 20 21 21 23 24 21 19 18 18 19 21 23 23 24 24 24
20 21 20 17 18 17 17 15 13 18 23 25 28 27 25 25 30 34 35 34 34 31 28 23 19 18 18 17 22 23 20 23 23 21 22 22 21 22 22 23 24 25 25 24
15 20 15 16 16 10 8 7 8 12 15 18 19 17 17 19 21 24 26 27 26 24 21 19 18 18 18 18 22 20 16 21 22 23 25 27 27 25 24 24 25 26 25 25
9 11 12 14 14 10 7 5 3 4 8 9 4 7 9 11 12 14 15 14 11 11 11 13 17 19 19 17 17 18 19 22 25 27 28 27 26 25 25 25 25 24 24 24
11 13 13 14 15 14 9 11 7 8 1 4 3 6 6 6 6 6 4 4 4 7 10 14 17 17 16 17 18 19 22 25 26 26 26 24 23 23 24 24 25 25 24 26
13 16 19 12 16 17 16 17 13 10 6 4 4 6 7 7 6 5 5 6 7 10 12 15 15 15 16 17 18 20 22 23 24 24 23 21 21 21 22 22 24 25 26 27
15 16 18 16 17 22 23 21 19 14 9 7 6 6 5 6 6 7 8 10 11 12 12 12 12 14 14 16 18 19 21 21 21 21 20 19 19 20 21 23 25 26 27 28
16 19 19 17 21 25 24 24 21 14 11 9 6 3 2 3 4 7 9 12 14 12 10 11 11 11 14 16 17 18 19 19 17 16 16 16 16 18 21 24 27 28 30 31
16 22 22 17 24 27 26 22 19 13 11 10 6 2 2 1 4 7 11 12 11 10 9 9 10 13 14 16 17 16 16 15 13 12 13 14 15 18 21 24 27 29 29 30
14 23 22 17 29 30 24 24 22 15 12 10 5 2 1 2 5 9 12 11 10 9 8 9 11 13 14 15 15 15 14 13 12 12 12 13 14 17 21 23 24 19 13 13
9 19 22 16 21 30 29 29 23 15 12 9 4 2 1 4 6 9 12 13 12 10 9 8 10 11 12 13 14 14 12 12 11 11 11 11 11 14 17 18 18 11 5 5
5 15 21 15 8 18 22 23 17 13 12 7 3 1 1 4 6 8 11 13 12 10 9 9 9 10 11 13 14 14 13 11 9 8 8 10 12 13 17 16 14 10 9 8
3 15 19 15 7 16 24 21 16 15 10 6 3 2 2 5 6 9 11 11 10 10 9 9 9 9 11 14 15 14 13 11 9 8 7 9 11 13 15 16 15 11 9 10
3 14 19 15 7 12 25 21 18 15 11 7 5 4 3 4 6 8 10 11 10 10 9 8 10 10 11 13 13 13 12 10 8 7 7 7 9 11 12 13 12 11 8 6
4 14 20 15 9 9 22 27 19 15 12 9 7 6 4 3 5 8 9 10 10 11 10 9 10 11 12 12 12 11 10 9 9 8 8 7 7 8 11 12 12 12 11 9
6 12 19 16 13 10 14 22 22 17 13 10 9 7 4 2 5 6 7 9 11 11 9 10 10 12 13 13 12 11 10 9 8 9 9 9 8 8 9 11 12 13 13 12
12 13 18 20 17 15 15 19 23 20 16 13 11 9 4 2 3 4 5 7 10 10 9 9 10 11 13 14 13 12 11 10 10 12 13 13 12 11 11 11 13 14 14 14
14 13 17 21 19 17 17 20 25 20 17 16 13 11 6 3 2 3 4 6 8 9 8 8 9 10 13 14 14 12 11 11 12 13 14 16 16 16 15 15 15 16 16 15
15 14 16 19 22 20 20 21 23 23 20 19 16 13 9 5 2 3 2 4 6 8 7 7 8 10 11 12 12 11 11 11 12 12 13 13 14 14 14 14 13 13 13 14
17 13 15 18 20 23 23 23 25 26 26 24 20 16 12 8 5 5 3 2 4 6 6 6 7 8 9 9 10 10 11 12 13 13 13 14 14 14 13 13 13 13 14 16
19 15 14 19 20 20 22 24 26 26 27 29 24 19 16 12 9 8 5 2 1 3 4 5 6 6 6 7 8 9 11 12 14 14 14 15 15 15 15 15 15 15 15 16
20 17 16 18 22 21 21 23 26 27 30 32 27 23 21 16 13 12 9 5 2 1 2 3 4 4 4 5 7 9 11 13 14 15 15 15 16 16 16 16 16 16 16 17
24 21 18 19 24 26 22 22 26 29 32 32 27 24 23 19 16 15 12 8 5 3 1 1 3 4 5 6 8 10 11 13 14 14 14 15 15 16 16 17 17 17 16 16
26 27 24 19 23 28 26 22 25 31 35 32 27 25 23 21 19 19 17 12 8 5 3 3 3 5 7 8 9 10 12 13 14 14 15 16 17 17 18 18 18 17 16 15
28 29 29 25 23 29 30 25 24 31 36 33 28 26 25 24 22 22 20 16 12 8 5 5 5 6 8 9 9 10 10 10 12 12 12 12 13 14 15 16 16 17 17 16
29 31 31 30 25 27 31 29 25 32 38 37 31 28 27 27 25 24 22 20 16 12 8 8 8 8 9 10 10 9 8 7 8 7 7 7 8 9 10 10 11 12 14 15
Wind_Direction
264 269 271 260 259 276 276 258 254 256 262 265 270 269 267 268 272 275 273 267 264 268 281 287 283 283 284 286 280 267 260 269 285 290 285 282 280 277 276 274 272 269 267 263
252 253 264 257 256 269 293 289 263 263 268 268 268 267 267 267 265 266 271 267 265 273 274 283 289 285 285 282 266 259 260 270 284 290 286 287 286 281 279 279 277 275 270 265
248 243 253 254 255 260 260 273 273 271 267 267 270 269 266 262 258 260 267 271 272 273 272 277 285 283 287 281 264 253 262 275 281 286 289 290 286 280 280 280 278 274 271 263
245 240 245 231 248 267 278 275 277 270 276 284 269 259 256 256 255 256 260 263 268 270 272 279 281 282 285 285 286 289 288 283 287 290 293 294 293 289 284 280 278 275 270 263
244 242 247 228 228 238 244 260 247 219 286 317 268 220 226 242 248 255 262 261 257 257 262 274 283 288 291 296 299 299 294 292 294 295 296 295 292 290 289 285 280 276 274 268
226 215 224 234 224 233 223 210 214 147 335 302 184 172 205 236 250 248 220 209 227 256 272 281 286 289 294 300 299 295 292 293 295 295 293 291 289 288 288 286 284 280 274 268
230 221 221 218 227 225 213 215 217 202 205 219 200 199 214 217 215 220 236 254 264 275 284 289 290 290 293 296 297 297 298 298 298 295 292 290 290 291 291 291 288 284 277 270
232 235 236 224 198 203 212 215 212 219 229 226 208 194 199 206 222 247 265 273 278 282 289 293 295 295 296 300 304 306 306 304 301 299 297 296 297 297 297 296 293 288 279 270
233 231 212 194 181 192 206 213 223 235 245 231 225 202 209 233 261 276 279 284 287 292 302 308 310 311 310 311 313 315 315 311 305 303 300 298 300 303 305 301 294 285 275 266
232 233 225 201 172 184 195 209 227 243 243 241 229 196 215 269 302 300 297 300 303 312 314 312 318 325 323 323 323 323 321 315 309 312 305 299 302 309 313 312 307 296 276 254
234 231 230 208 173 188 202 218 229 240 240 235 219 223 336 342 323 317 316 320 316 310 312 318 324 329 331 332 331 325 323 324 325 326 319 310 313 322 326 331 336 326 280 248
245 228 227 217 188 189 199 212 222 228 238 234 226 242 1 345 334 334 327 329 322 314 319 324 326 330 336 340 340 337 332 332 334 337 339 343 345 349 347 345 355 14 340 343
226 228 226 235 231 207 202 212 206 211 226 223 231 244 354 329 327 343 343 336 330 325 325 322 321 325 334 343 347 351 351 341 334 339 351 356 353 355 2 4 5 27 28 37
207 219 221 226 236 226 222 224 198 210 217 223 248 273 323 314 330 350 353 351 344 332 328 324 323 321 325 334 342 352 355 349 341 335 336 341 347 357 5 11 16 22 29 42
315 216 221 231 232 210 211 214 192 204 220 244 264 257 279 306 339 357 1 6 358 345 340 337 339 339 337 337 342 349 351 351 350 354 349 348 355 4 14 20 27 29 34 56
294 222 224 233 248 233 219 217 201 208 223 245 254 252 266 307 345 4 10 14 2 352 349 349 354 1 356 353 357 360 1 3 5 5 5 2 5 15 25 31 35 37 38 44
283 225 224 235 251 256 230 217 208 210 223 242 252 250 257 312 346 3 15 13 2 357 356 355 0 7 10 14 17 19 19 15 15 17 20 22 28 36 36 34 34 34 38 41
291 247 229 233 249 262 240 221 206 206 221 237 247 247 245 271 327 349 12 8 360 1 3 0 3 11 19 26 30 31 30 34 39 43 49 51 54 54 50 46 45 47 51 55
304 264 231 228 243 257 258 238 207 213 224 233 239 241 241 253 301 330 356 355 357 7 13 14 12 21 29 35 36 36 40 47 53 59 62 62 62 64 68 71 69 66 60 53
315 284 244 227 234 244 246 244 223 221 227 231 234 239 244 243 252 287 322 348 2 16 28 31 32 37 40 43 42 45 55 62 67 71 74 74 74 76 77 75 69 59 51 45
313 290 253 234 235 236 239 240 237 234 233 232 229 234 238 232 224 248 258 315 4 25 35 44 46 45 51 51 50 54 64 72 78 83 85 86 85 83 79 73 66 59 56 57
320 295 267 241 238 236 234 238 240 240 231 224 226 232 232 223 213 224 228 228 321 25 35 48 51 51 56 55 56 62 75 83 84 85 85 83 80 76 71 66 63 61 60 62
328 304 278 253 241 239 235 235 237 239 229 224 225 225 225 215 210 213 210 207 218 1 32 51 60 73 83 78 76 82 88 88 84 80 78 76 74 71 67 65 63 62 62 61
319 321 294 265 245 242 242 235 233 230 224 220 220 219 217 210 208 208 207 203 204 206 196 92 92 116 122 113 105 102 98 92 87 80 76 74 73 71 68 65 63 62 62 61
309 313 320 287 252 243 246 239 226 224 220 215 215 212 211 210 209 207 208 209 208 208 199 175 150 145 143 138 125 115 108 101 93 86 80 76 74 72 69 66 63 60 58 56
309 303 312 313 271 247 245 242 230 219 210 206 205 207 208 209 210 209 207 206 208 211 207 202 189 167 157 151 143 133 122 107 95 88 83 79 73 69 66 65 62 57 53 52
309 301 302 312 293 256 244 242 231 209 204 207 208 211 210 209 209 209 207 206 210 212 212 218 212 191 176 168 162 155 145 127 112 100 86 68 55 51 56 60 61 58 50 47
Height
5756 5756 5757 5759 5759 5758 5758 5759 5761 5764 5766 5768 5770 5771 5774 5778 5779 5781 5782 5781 5780 5780 5780 5779 5777 5775 5773 5771 5769 5768 5767 5765 5766 5765 5763 5762 5762 5761 5760 5760 5761 5762 5762 5762
5748 5749 5750 5753 5754 5754 5753 5752 5753 5754 5757 5757 5757 5760 5764 5766 5767 5771 5773 5772 5773 5774 5773 5773 5771 5768 5766 5765 5763 5763 5763 5762 5761 5759 5757 5756 5756 5755 5754 5754 5754 5754 5754 5755
5740 5743 5745 5748 5748 5749 5749 5748 5748 5748 5748 5750 5750 5751 5754 5758 5760 5763 5764 5765 5767 5767 5766 5766 5764 5763 5762 5761 5757 5754 5754 5756 5755 5753 5751 5750 5750 5749 5748 5747 5746 5746 5746 5747
5734 5738 5741 5744 5744 5746 5745 5746 5746 5745 5744 5745 5745 5746 5749 5751 5754 5757 5759 5760 5760 5760 5760 5760 5759 5759 5758 5756 5751 5750 5747 5749 5748 5746 5744 5742 5741 5740 5740 5739 5739 5738 5738 5738
5730 5733 5737 5739 5742 5742 5743 5745 5744 5742 5743 5744 5743 5744 5746 5749 5752 5753 5754 5754 5755 5755 5756 5757 5756 5755 5753 5751 5749 5746 5744 5742 5740 5738 5736 5735 5733 5731 5730 5730 5730 5729 5728 5728
5725 5729 5732 5735 5737 5740 5743 5743 5744 5742 5742 5743 5743 5745 5747 5749 5751 5752 5752 5753 5754 5754 5754 5753 5752 5750 5749 5747 5745 5742 5740 5737 5734 5731 5729 5727 5726 5724 5723 5722 5721 5720 5720 5719
5719 5722 5725 5729 5733 5738 5741 5740 5741 5742 5743 5744 5744 5746 5748 5749 5749 5751 5752 5752 5753 5752 5751 5749 5747 5745 5744 5742 5740 5737 5734 5731 5727 5724 5721 5720 5719 5718 5716 5714 5712 5711 5710 5710
5714 5717 5722 5723 5727 5731 5734 5735 5737 5739 5742 5744 5746 5746 5747 5748 5748 5749 5751 5752 5751 5749 5747 5746 5744 5741 5739 5737 5735 5732 5728 5724 5721 5718 5716 5714 5712 5711 5709 5706 5704 5702 5701 5700
5709 5713 5715 5718 5720 5726 5731 5734 5737 5740 5743 5745 5746 5746 5746 5747 5748 5749 5750 5750 5748 5746 5744 5742 5740 5738 5735 5733 5730 5726 5723 5719 5717 5715 5712 5710 5708 5706 5702 5698 5695 5692 5690 5690
5705 5709 5712 5714 5718 5723 5729 5732 5736 5740 5743 5745 5745 5745 5746 5746 5747 5748 5748 5747 5745 5743 5742 5740 5738 5735 5732 5729 5726 5723 5719 5716 5713 5711 5709 5707 5705 5701 5697 5692 5685 5679 5675 5675
5705 5708 5713 5716 5720 5723 5727 5731 5735 5740 5743 5744 5745 5746 5745 5745 5745 5746 5746 5744 5742 5742 5740 5738 5736 5733 5730 5726 5723 5720 5716 5713 5709 5707 5705 5703 5701 5697 5692 5686 5679 5670 5665 5666
5706 5710 5714 5717 5720 5723 5726 5728 5734 5739 5742 5743 5744 5744 5744 5744 5745 5744 5744 5742 5741 5740 5738 5735 5733 5731 5728 5725 5721 5717 5713 5710 5707 5705 5703 5700 5698 5694 5689 5683 5677 5671 5667 5667
5708 5710 5715 5719 5720 5723 5726 5729 5734 5738 5741 5742 5743 5742 5742 5743 5743 5742 5740 5739 5739 5738 5736 5734 5731 5729 5727 5724 5720 5716 5711 5708 5706 5703 5701 5699 5696 5693 5688 5683 5678 5674 5672 5670
5709 5712 5716 5719 5721 5722 5726 5729 5733 5737 5740 5741 5741 5741 5741 5742 5742 5740 5738 5737 5736 5736 5734 5732 5730 5728 5725 5722 5718 5714 5710 5707 5704 5702 5699 5697 5695 5692 5689 5684 5680 5677 5675 5674
5711 5713 5717 5720 5723 5724 5727 5729 5732 5736 5738 5740 5740 5740 5741 5741 5741 5739 5737 5736 5735 5735 5733 5731 5728 5725 5723 5720 5716 5712 5708 5705 5703 5701 5699 5697 5695 5692 5689 5686 5683 5681 5679 5678
5712 5713 5715 5719 5722 5723 5725 5728 5731 5734 5737 5739 5740 5740 5740 5741 5740 5738 5737 5736 5735 5734 5732 5730 5727 5724 5721 5718 5714 5710 5707 5704 5702 5700 5699 5697 5695 5693 5690 5688 5686 5684 5682 5681
5712 5713 5715 5717 5719 5721 5722 5724 5728 5731 5735 5738 5739 5739 5740 5740 5739 5738 5737 5736 5735 5733 5731 5729 5726 5724 5721 5717 5713 5710 5707 5705 5703 5701 5699 5698 5696 5694 5692 5690 5689 5687 5685 5683
5713 5712 5713 5715 5717 5718 5719 5722 5725 5728 5732 5735 5737 5738 5739 5739 5739 5738 5737 5736 5735 5733 5730 5728 5726 5724 5721 5718 5714 5711 5709 5707 5705 5703 5701 5699 5697 5696 5695 5693 5691 5689 5687 5686
5711 5710 5711 5713 5715 5716 5717 5719 5723 5725 5728 5732 5734 5736 5738 5738 5738 5738 5737 5736 5735 5733 5730 5728 5727 5724 5722 5719 5716 5713 5711 5709 5708 5706 5704 5702 5701 5699 5698 5696 5695 5693 5692 5690
5707 5706 5707 5710 5711 5713 5715 5717 5720 5722 5726 5729 5732 5734 5736 5737 5737 5738 5737 5737 5735 5733 5731 5729 5728 5726 5723 5722 5720 5717 5715 5713 5711 5710 5708 5707 5705 5703 5702 5700 5699 5697 5695 5693
5705 5702 5703 5706 5707 5708 5711 5714 5717 5719 5723 5727 5729 5731 5734 5735 5736 5737 5737 5737 5736 5734 5732 5731 5729 5727 5726 5724 5723 5721 5719 5716 5715 5713 5712 5710 5709 5707 5706 5704 5703 5701 5699 5697
5702 5700 5699 5701 5703 5704 5706 5708 5711 5714 5717 5722 5725 5728 5731 5733 5734 5736 5737 5736 5735 5735 5734 5732 5731 5729 5728 5727 5726 5724 5722 5720 5719 5718 5717 5715 5713 5711 5709 5708 5706 5704 5702 5701
5699 5697 5695 5695 5697 5699 5700 5701 5704 5708 5712 5716 5721 5724 5727 5730 5731 5734 5735 5735 5734 5735 5734 5734 5732 5731 5730 5729 5728 5727 5726 5724 5723 5723 5721 5720 5717 5715 5713 5712 5710 5708 5706 5704
5695 5692 5690 5688 5690 5692 5694 5694 5697 5702 5706 5711 5715 5719 5723 5726 5729 5730 5732 5733 5734 5734 5735 5734 5733 5732 5731 5731 5730 5730 5729 5728 5727 5726 5725 5723 5721 5719 5717 5716 5714 5712 5710 5708
5689 5685 5685 5683 5683 5685 5687 5688 5690 5695 5701 5706 5711 5715 5719 5722 5725 5727 5728 5730 5731 5732 5733 5733 5733 5732 5732 5732 5732 5732 5731 5730 5730 5729 5728 5727 5725 5723 5721 5719 5717 5715 5713 5711
5683 5679 5677 5677 5677 5678 5680 5682 5684 5688 5695 5701 5706 5710 5713 5717 5720 5722 5724 5726 5728 5730 5731 5732 5732 5732 5732 5732 5732 5733 5733 5732 5732 5732 5731 5730 5728 5726 5725 5723 5721 5719 5716 5714
5676 5672 5669 5670 5669 5669 5673 5676 5678 5682 5688 5694 5699 5704 5708 5711 5715 5718 5720 5723 5725 5727 5728 5730 5731 5731 5731 5732 5732 5733 5733 5733 5733 5733 5733 5732 5731 5729 5727 5725 5723 5721 5719 5717